Weather History for KHTS - December, 2011

Change the Weather History Date:

Wednesday, December 28, 2011

  Actual Average Record
Temperature  
Mean Temperature 35 °F 34 °F  
Max Temperature 42 °F 43 °F 73 °F (1984)
Min Temperature 28 °F 26 °F 4 °F (1925)
Degree Days  
Heating Degree Days 30 30  
Month to date heating degree days 646 776  
Since 1 July heating degree days 1461 1663  
Cooling Degree Days 0 0  
Month to date cooling degree days 0 0  
Year to date cooling degree days 1242 1134  
Moisture  
Dew Point 28 °F    
Average Humidity 68    
Maximum Humidity 85    
Minimum Humidity 51    
Precipitation  
Precipitation T in 0.10 in 1.04 in (1916)
Month to date precipitation 3.32 3.01  
Year to date precipitation 62.45 42.29  
Snow  
Snow 0.00 in - - ()
Month to date snowfall T  
Since 1 September snowfall T  
Snow Depth 0.00 in    
Sea Level Pressure  
Sea Level Pressure 29.99 in    
Wind  
Wind Speed 7 mph (West)    
Max Wind Speed 18 mph    
Max Gust Speed 29 mph    
Visibility 10 miles    
Events Rain    
T = Trace of Precipitation, MM = Missing Value Source: NWS Daily Summary

Daily Weather History Graph

Daily Weather History Graph

Search for Another Location

Airport or City:

Trip Planner

Search our weather history database for the weather conditions in past years. The results will help you decide how hot, cold, wet, or windy it might be!

Date:

Astronomy

Dec. 28, 2011 Rise Set
Actual Time 7:46 AM EST 5:17 PM EST
Civil Twilight 7:16 AM EST 5:46 PM EST
Nautical Twilight 6:43 AM EST 6:20 PM EST
Astronomical Twilight 6:11 AM EST 6:52 PM EST
Moon 10:14 AM EST (12/28) 9:48 PM EST (12/28)
Length of Visible Light 10h 30m
Length of Day
9h 30m
Waxing Crescent, 18% of the Moon is Illuminated
Dec 28
Waxing Crescent
Jan 1
First Quarter
Jan 9
Full
Jan 16
Last Quarter
Jan 23
New

Hourly Weather History & Observations

Time (EST) Temp. Windchill Dew Point Humidity Pressure Visibility Wind Dir Wind Speed Gust Speed Precip Events Conditions
12:51 AM 37.0 °F 29.8 °F 34.0 °F 89% 29.82 in 10.0 mi West 10.4 mph 21.9 mph 0.00 in Rain Light Rain
1:37 AM 37.4 °F 31.4 °F 33.8 °F 87% 29.82 in 10.0 mi West 8.1 mph 16.1 mph 0.00 in   Overcast
1:51 AM 37.9 °F 30.5 °F 33.1 °F 83% 29.84 in 10.0 mi West 11.5 mph 19.6 mph 0.00 in Rain Light Rain
2:51 AM 37.9 °F 30.9 °F 33.1 °F 83% 29.87 in 10.0 mi West 10.4 mph - 0.00 in   Overcast
3:51 AM 37.9 °F 32.1 °F 32.0 °F 79% 29.90 in 10.0 mi West 8.1 mph 17.3 mph 0.00 in Rain Light Rain
4:39 AM 37.4 °F 28.5 °F 28.4 °F 70% 29.91 in 10.0 mi NW 15.0 mph 21.9 mph 0.00 in   Overcast
4:51 AM 37.0 °F 29.3 °F 28.9 °F 73% 29.93 in 10.0 mi WNW 11.5 mph 19.6 mph 0.00 in   Overcast
5:51 AM 36.0 °F 29.6 °F 28.0 °F 73% 29.96 in 10.0 mi WNW 8.1 mph 24.2 mph N/A   Overcast
6:51 AM 36.0 °F 32.1 °F 28.9 °F 76% 29.98 in 10.0 mi West 4.6 mph - N/A   Overcast
7:51 AM 36.0 °F 30.3 °F 28.9 °F 76% 30.01 in 10.0 mi West 6.9 mph - 0.00 in   Overcast
8:28 AM 35.6 °F 29.2 °F 28.4 °F 75% 30.00 in 10.0 mi WSW 8.1 mph 18.4 mph N/A   Overcast
8:51 AM 36.0 °F 28.5 °F 28.0 °F 73% 30.04 in 10.0 mi West 10.4 mph - N/A   Overcast
9:51 AM 37.0 °F 31.0 °F 28.0 °F 70% 30.07 in 10.0 mi WSW 8.1 mph - N/A   Overcast
10:51 AM 37.0 °F 32.4 °F 28.0 °F 70% 30.06 in 10.0 mi West 5.8 mph - N/A   Scattered Clouds
11:51 AM 39.0 °F 32.3 °F 27.0 °F 62% 30.04 in 10.0 mi WSW 10.4 mph 17.3 mph 0.00 in   Overcast
12:51 PM 39.9 °F 34.5 °F 25.0 °F 55% 30.01 in 10.0 mi West 8.1 mph - 0.00 in   Mostly Cloudy
2:51 PM 41.0 °F 35.8 °F 24.1 °F 51% 30.01 in 10.0 mi West 8.1 mph - 0.00 in   Clear
3:51 PM 39.9 °F 35.1 °F 24.1 °F 53% 30.04 in 10.0 mi West 6.9 mph - N/A   Partly Cloudy
4:51 PM 39.0 °F 32.8 °F 25.0 °F 57% 30.05 in 10.0 mi West 9.2 mph - N/A   Overcast
5:51 PM 37.9 °F 32.7 °F 24.1 °F 57% 30.06 in 10.0 mi West 6.9 mph - N/A   Overcast
6:51 PM 36.0 °F 31.1 °F 24.1 °F 62% 30.07 in 10.0 mi West 5.8 mph - N/A   Partly Cloudy
7:51 PM 35.1 °F 31.0 °F 25.0 °F 67% 30.07 in 10.0 mi WSW 4.6 mph - N/A   Clear
8:51 PM 34.0 °F 29.8 °F 25.0 °F 70% 30.07 in 10.0 mi West 4.6 mph - N/A   Clear
9:51 PM 30.9 °F 27.5 °F 26.1 °F 82% 30.07 in 10.0 mi SSW 3.5 mph - N/A   Partly Cloudy
10:51 PM 30.0 °F 26.5 °F 25.0 °F 82% 30.06 in 10.0 mi SSW 3.5 mph - N/A   Scattered Clouds
11:51 PM 28.0 °F - 26.1 °F 92% 30.05 in 10.0 mi Calm Calm - N/A   Clear